Alghero, Italy

5:28 PM CEST on April 25, 2017 (GMT +0200)
Alghero

Weather History for LIEA - December, 2012

Change the Weather History Date:

Monday, December 24, 2012

  Actual Average Record
Temperature  
Mean Temperature 52 °F -  
Max Temperature 62 °F 55 °F 63 °F (2015)
Min Temperature 42 °F 40 °F 30 °F (1999)
Degree Days  
Heating Degree Days 13    
Growing Degree Days 2 (Base 50)    
Moisture  
Dew Point 50 °F    
Average Humidity 91    
Maximum Humidity 100    
Minimum Humidity 68    
Precipitation  
Precipitation 0.00 in 0.09 in - ()
Sea Level Pressure  
Sea Level Pressure 30.17 in    
Wind  
Wind Speed 4 mph ()    
Max Wind Speed 10 mph    
Max Gust Speed -    
Visibility 4.5 miles    
Events Fog    
Averages and records for this station are not official NWS values.
T = Trace of Precipitation, MM = Missing Value Source: Averaged Metar Reports

Daily Weather History Graph

Daily Weather History Graph

Search for Another Location

Airport or City:

Trip Planner

Search our weather history database for the weather conditions in past years. The results will help you decide how hot, cold, wet, or windy it might be!

Date:

Astronomy

Dec. 24, 2012 Rise Set
Actual Time 7:48 AM CET 5:04 PM CET
Civil Twilight 7:17 AM CET 5:35 PM CET
Nautical Twilight 6:43 AM CET 6:10 PM CET
Astronomical Twilight 6:09 AM CET 6:43 PM CET
Moon 2:22 PM CET (12/24) 4:11 AM CET (12/24)
Length of Visible Light 10h 17m
Length of Day
9h 16m
Waxing Gibbous, 86% of the Moon is Illuminated
Dec 24
Waxing Gibbous
Dec 28
Full
Jan 5
Last Quarter
Jan 11
New
Jan 19
First Quarter

Hourly Weather History & Observations

Time (CET) Temp. Windchill Dew Point Humidity Pressure Visibility Wind Dir Wind Speed Gust Speed Precip Events Conditions
12:20 AM 57.2 °F - 55.4 °F 94% 30.21 in 6.2 mi South 5.8 mph - N/A   Mostly Cloudy
12:50 AM 57.2 °F - 55.4 °F 94% 30.21 in 6.2 mi South 8.1 mph - N/A   Scattered Clouds
1:20 AM 55.4 °F - 53.6 °F 94% 30.21 in 6.2 mi SW 4.6 mph - N/A   Scattered Clouds
1:50 AM 55.4 °F - 53.6 °F 94% 30.21 in 6.2 mi SSW 6.9 mph - N/A   Partly Cloudy
2:20 AM 55.4 °F - 53.6 °F 94% 30.21 in 6.2 mi SW 8.1 mph - N/A   Partly Cloudy
2:50 AM 53.6 °F - 51.8 °F 94% 30.21 in 6.2 mi SSW 5.8 mph - N/A   Partly Cloudy
3:20 AM 51.8 °F - 51.8 °F 100% 30.18 in 6.2 mi South 3.5 mph - N/A   Partly Cloudy
3:50 AM 50.0 °F - 48.2 °F 94% 30.18 in 6.2 mi Variable 2.3 mph - N/A   Partly Cloudy
4:20 AM 50.0 °F - 48.2 °F 94% 30.18 in 6.2 mi SE 3.5 mph - N/A   Partly Cloudy
4:50 AM 50.0 °F - 48.2 °F 94% 30.18 in 6.2 mi Variable 1.2 mph - N/A   Partly Cloudy
5:20 AM 48.2 °F - 48.2 °F 100% 30.18 in 6.2 mi Variable 2.3 mph - N/A   Partly Cloudy
5:50 AM 46.4 °F - 46.4 °F 100% 30.18 in 6.2 mi Calm Calm - N/A   Partly Cloudy
6:20 AM 44.6 °F - 42.8 °F 93% 30.18 in 0.6 mi Calm Calm - N/A Fog Patches of Fog
6:50 AM 42.8 °F - 42.8 °F 100% 30.18 in 0.6 mi Calm Calm - N/A Fog Patches of Fog
7:20 AM 44.6 °F - 42.8 °F 93% 30.18 in 0.9 mi Variable 2.3 mph - N/A Fog Patches of Fog
7:50 AM 42.8 °F - 42.8 °F 100% 30.18 in 1.2 mi Variable 1.2 mph - N/A Fog Patches of Fog
8:20 AM 42.8 °F - 42.8 °F 100% 30.21 in 5.0 mi NNE 2.3 mph - N/A Fog Patches of Fog
8:50 AM 44.6 °F - 44.6 °F 100% 30.21 in 6.2 mi NNE 2.3 mph - N/A Fog Shallow Fog
9:20 AM 50.0 °F - 48.2 °F 94% 30.21 in - Variable 1.2 mph - N/A   Clear
9:50 AM 51.8 °F - 50.0 °F 94% 30.21 in - Variable 2.3 mph - N/A   Clear
10:20 AM 55.4 °F - 51.8 °F 88% 30.21 in - Variable 1.2 mph - N/A   Clear
10:50 AM 59.0 °F - 53.6 °F 82% 30.21 in - Variable 2.3 mph - N/A   Clear
11:20 AM 60.8 °F - 53.6 °F 77% 30.21 in - South 5.8 mph - N/A   Clear
11:50 AM 62.6 °F - 53.6 °F 72% 30.21 in - SSW 9.2 mph - N/A   Clear
12:20 PM 60.8 °F - 53.6 °F 77% 30.18 in - SSW 9.2 mph - N/A   Clear
12:50 PM 62.6 °F - 51.8 °F 68% 30.18 in - SSW 10.4 mph - N/A   Clear
1:20 PM 60.8 °F - 51.8 °F 72% 30.18 in - SSW 10.4 mph - N/A   Clear
1:50 PM 62.6 °F - 51.8 °F 68% 30.15 in - SSW 9.2 mph - N/A   Clear
2:20 PM 60.8 °F - 51.8 °F 72% 30.15 in - South 6.9 mph - N/A   Clear
2:50 PM 60.8 °F - 53.6 °F 77% 30.15 in - South 6.9 mph - N/A   Clear
3:20 PM 60.8 °F - 53.6 °F 77% 30.15 in - SSW 5.8 mph - N/A   Clear
3:50 PM 59.0 °F - 53.6 °F 82% 30.15 in - SSW 5.8 mph - N/A   Clear
4:20 PM 57.2 °F - 53.6 °F 88% 30.12 in - SE 3.5 mph - N/A   Clear
4:50 PM 57.2 °F - 53.6 °F 88% 30.15 in - Variable 1.2 mph - N/A   Clear
5:20 PM 55.4 °F - 51.8 °F 88% 30.12 in - Variable 2.3 mph - N/A   Clear
5:50 PM 55.4 °F - 51.8 °F 88% 30.15 in - Variable 2.3 mph - N/A   Clear
6:20 PM 51.8 °F - 51.8 °F 100% 30.15 in - NE 3.5 mph - N/A   Clear
6:50 PM 51.8 °F - 50.0 °F 94% 30.15 in - NE 3.5 mph - N/A   Clear
7:20 PM 50.0 °F - 48.2 °F 94% 30.15 in 3.1 mi Calm Calm - N/A   Mist
7:50 PM 50.0 °F - 48.2 °F 94% 30.15 in 3.1 mi North 1.2 mph - N/A   Mist
8:20 PM 48.2 °F - 48.2 °F 100% 30.15 in 3.1 mi Variable 1.2 mph - N/A   Mist
8:50 PM 50.0 °F - 48.2 °F 94% 30.15 in 3.1 mi Variable 1.2 mph - N/A   Mist
9:20 PM 48.2 °F - 48.2 °F 100% 30.15 in 4.3 mi Variable 1.2 mph - N/A   Unknown
9:50 PM 46.4 °F 45.2 °F 46.4 °F 100% 30.15 in 4.3 mi Variable 3.5 mph - N/A   Unknown
10:20 PM 46.4 °F 43.5 °F 46.4 °F 100% 30.12 in 4.3 mi NE 5.8 mph - N/A   Unknown
10:50 PM 46.4 °F 45.2 °F 44.6 °F 93% 30.12 in 4.3 mi NE 3.5 mph - N/A   Unknown
11:20 PM 44.6 °F - 44.6 °F 100% 30.12 in 4.3 mi Variable 2.3 mph - N/A   Unknown
11:50 PM 46.4 °F 45.2 °F 46.4 °F 100% 30.12 in 4.3 mi North 3.5 mph - N/A   Unknown